Weather History for MMCV - November, 2012

Change the Weather History Date:

Friday, November 30, 2012

  Actual Average Record
Temperature  
Mean Temperature 72 °F -  
Max Temperature 84 °F 73 °F 86 °F (1998)
Min Temperature 59 °F 52 °F 41 °F (2003)
Cooling Degree Days 6    
Growing Degree Days 22 (Base 50)    
Moisture  
Dew Point 62 °F    
Average Humidity 78    
Maximum Humidity 100    
Minimum Humidity 46    
Precipitation  
Precipitation 0.00 in - - ()
Sea Level Pressure  
Sea Level Pressure 30.12 in    
Wind  
Wind Speed 3 mph ()    
Max Wind Speed 22 mph    
Max Gust Speed -    
Visibility 4.7 miles    
Events Fog    
Averages and records for this station are not official NWS values.
T = Trace of Precipitation, MM = Missing Value Source: Averaged Metar Reports

Daily Weather History Graph

Daily Weather History Graph

Search for Another Location

Airport or City:

Trip Planner

Search our weather history database for the weather conditions in past years. The results will help you decide how hot, cold, wet, or windy it might be!

Date:

Astronomy

Nov. 30, 2012 Rise Set
Actual Time 7:01 AM CST 5:48 PM CST
Civil Twilight 6:36 AM CST 6:12 PM CST
Nautical Twilight 6:08 AM CST 6:40 PM CST
Astronomical Twilight 5:41 AM CST 7:08 PM CST
Moon 7:42 PM CST (11/30) 8:34 AM CST (11/30)
Length of Visible Light 11h 36m
Length of Day
10h 47m
Waning Gibbous, 96% of the Moon is Illuminated
Nov 30
Waning Gibbous
Dec 6
Last Quarter
Dec 13
New
Dec 19
First Quarter
Dec 28
Full

Hourly Weather History & Observations

Time (CST) Temp. Heat Index Dew Point Humidity Pressure Visibility Wind Dir Wind Speed Gust Speed Precip Events Conditions
2:45 AM 61 °F - 61 °F 99% 30.13 in 4 mi Calm Calm - -  
5:45 AM 60 °F - 59 °F 97% 30.14 in 4 mi Calm Calm - -  
6:08 AM 60.8 °F - 60.8 °F 100% 30.12 in 0.1 mi North 3.5 mph - N/A Fog Fog
6:43 AM 60.8 °F - 60.8 °F 100% 30.12 in 0.1 mi NW 4.6 mph - N/A Fog Fog
7:08 AM 60.8 °F - 60.8 °F 100% 30.13 in 0.1 mi Calm Calm - N/A Fog Fog
7:45 AM 62.6 °F - 62.6 °F 100% 30.14 in 0.2 mi WNW 3.5 mph - N/A Fog Fog
7:59 AM 64.4 °F - 64.4 °F 100% 30.15 in 0.5 mi WSW 3.5 mph - N/A Fog Fog
8:05 AM 64.4 °F - 64.4 °F 100% 30.15 in 0.8 mi West 2.3 mph - N/A   Mist
8:10 AM 64.4 °F - 64.4 °F 100% 30.15 in 1.0 mi West 3.5 mph - N/A   Mist
8:41 AM 64.4 °F - 64.4 °F 100% 30.18 in 2.0 mi West 3.5 mph - N/A   Mostly Cloudy
8:50 AM 64 °F - 64 °F 100% 30.22 in 6 mi Calm Calm - -   Mostly Cloudy
9:03 AM 64.4 °F - 64.4 °F 100% 30.17 in 4.0 mi West 3.5 mph - N/A   Mostly Cloudy
9:12 AM 66.2 °F - 66.2 °F 100% 30.17 in 4.0 mi WNW 4.6 mph - N/A   Mostly Cloudy
9:50 AM 68.0 °F - 66.2 °F 94% 30.17 in 5.0 mi NW 6.9 mph - N/A   Mostly Cloudy
10:42 AM 71.6 °F - 64.4 °F 78% 30.17 in 8.0 mi Calm Calm - N/A   Scattered Clouds
11:44 AM 75.2 °F - 62.6 °F 65% 30.17 in 8.0 mi Calm Calm - N/A   Scattered Clouds
11:50 AM 76 °F - 64 °F 58% 30.20 in 6 mi ENE 2.2 mph - -   Scattered Clouds
12:43 PM 80.6 °F 81.8 °F 62.6 °F 54% 30.11 in 8.0 mi SE 4.6 mph - N/A   Scattered Clouds
1:45 PM 80.6 °F 81.5 °F 60.8 °F 51% 30.07 in 8.0 mi South 6.9 mph - N/A   Scattered Clouds
2:46 PM 80.6 °F 81.5 °F 60.8 °F 51% 30.06 in 8.0 mi South 6.9 mph - N/A   Scattered Clouds
2:50 PM 84 °F - 66 °F 46% 30.10 in 6 mi North 2.2 mph - -   Partly Cloudy
3:41 PM 80.6 °F 81.5 °F 60.8 °F 51% 30.04 in 8.0 mi East 5.8 mph - N/A   Mostly Cloudy
4:42 PM 78.8 °F - 60.8 °F 54% 30.04 in 8.0 mi ESE 3.5 mph - N/A   Scattered Clouds
5:41 PM 78.8 °F - 59.0 °F 51% 30.07 in 8.0 mi South 3.5 mph - N/A   Mostly Cloudy
5:50 PM 80 °F - 63 °F 47% 30.08 in 6 mi ESE 22.4 mph - -   Mostly Cloudy
6:43 PM 75.2 °F - 59.0 °F 57% 30.06 in 6.0 mi South 3.5 mph - N/A   Mostly Cloudy
7:45 PM 71.6 °F - 59.0 °F 64% 30.08 in 6.0 mi South 3.5 mph - N/A   Partly Cloudy
8:41 PM 71.6 °F - 59.0 °F 64% 30.10 in 6.0 mi ESE 4.6 mph - N/A   Clear
8:45 PM 70 °F - 62 °F 69% 30.11 in 4 mi Calm Calm - -  
9:40 PM 69.8 °F - 60.8 °F 73% 30.11 in 6.0 mi SE 8.1 mph - N/A   Clear
11:45 PM 63 °F - 62 °F 95% 30.13 in 4 mi Calm Calm - -